sat.trackr.live / text

‹ back to catalog

HULIANWANG DIGUI-42

NORAD 65045 · 2025-162C

PAYLOAD ACTIVE UNKNOWN

§ Identity

Operator
Country
PRC
Launch date
2025-07-30
Launch site
WSC
Launch vehicle
Mass (kg)
RCS (m²)

External: N2YO · Heavens-Above · Gunter

§ Orbital elements

Epoch: 2026-09-21T12:42:26.617536Z

Period
108.33 min
Inclination
49.9965°
Eccentricity
0.0000760
Mean motion
13.29325577 rev/d
Perigee alt
1,148.7 km
Apogee alt
1,149.9 km
Semi-major
7,527.4 km
B*
8.1089e-5
RAAN
280.1470°
Arg perigee
286.8252°
Mean anomaly
73.2536°
Rev number
5,617

§ Raw data

HULIANWANG DIGUI-421 65045U 25162C   26264.52947474 -.00000086  00000+0  81089-4 0  99922 65045  49.9965 280.1470 0000760 286.8252  73.2536 13.29325577 56171

JSON: /api/v1/satellites/65045 · /tle

For live sub-satellite position, see the globe view (requires WebGL).

§ Visibility from observer

Set your observer location to see the next 7 days of passes ≥ 10°. The values pass through the URL so the page stays shareable.

No JS? Fill the form by hand. The geolocation button needs JavaScript.